[[{"header":{"parameterUnit":"m.s-1","parameterCategory":1,"la1":30.2991,"la2":30.254,"lo1":-89.0895,"lo2":-89.0444,"dy":0.0017,"dx":0.0017,"nx":28,"ny":28,"refTime":"2025-02-07T09:00:00:Z","depth":0,"parameterNumber":2,"parameterNumberName":"U-component_of_WINDS"},"data":[0,0,0,0,0,0,0,0,0,0,0,0,0,0,0,0,0,0,0,0,0,0,0,0,0,0,0,0,0,0,0,0,0,0,0,0,0,0,0,0,0,0,0,0,0,0,0,0,0,0,0,0,0,0,0,0,0,0,0.1793,0.1793,0,0.1862,0.1862,0.1863,0.1888,0.1887,0.1887,0.1887,0.1959,0.1961,0.1963,0,0,0,0,0,0,0,0,0,0,0,0,0,0.1685,0.1686,0.1793,0.1794,0.1794,0.1862,0.1863,0.1863,0.1888,0.1887,0.1887,0.1887,0.1959,0.1961,0.1964,0,0,0,0,0,0,0,0,0,0,0,0,0,0.174,0.1687,0.1793,0.1814,0.1817,0.1861,0.1863,0.1864,0.1888,0.1887,0.1887,0.1886,0.1958,0.1961,0.1964,0.1992,0,0,0.1974,0.1975,0,0,0,0,0,0,0,0,0.1737,0.1744,0.181,0.1813,0.1816,0.1866,0.1851,0.1907,0.1888,0.1861,0.1887,0.1886,0.1929,0.1934,0.1948,0.1995,0.1999,0.1974,0.1976,0.1978,0.1979,0,0,0,0,0,0,0,0.1733,0.1742,0.182,0.1811,0.1815,0.1822,0.1829,0.1862,0.1896,0.1863,0.1865,0.1873,0.193,0.1945,0.195,0.2,0.1974,0.1977,0.1979,0.198,0.2076,0.2076,0,0,0,0,0,0,0.1725,0.1738,0.1818,0.1822,0.1775,0.1824,0.1832,0.185,0.1896,0.1902,0.1873,0.1874,0.1939,0.1946,0.1953,0.199,0.1978,0.1981,0.1983,0.2075,0.2076,0.2076,0,0,0,0,0,0,0.1723,0.1732,0.1815,0.1781,0.1792,0.1826,0.1846,0.1852,0.1866,0.1903,0.191,0.1882,0.1939,0.1948,0.1982,0.1993,0.1982,0.1985,0.2074,0.2075,0.2076,0.2063,0,0,0,0,0,0,0.172,0.1731,0.1741,0.1781,0.1793,0.1843,0.1847,0.1853,0.1872,0.1873,0.1913,0.1919,0.194,0.1977,0.1986,0.1997,0.1988,0.2074,0.2075,0.2076,0.2063,0.2064,0.2064,0,0,0,0,0,0.1716,0.1735,0.1742,0.1751,0.1807,0.1843,0.1851,0.1873,0.1872,0.1884,0.1908,0.1918,0.199,0.1981,0.199,0.2002,0.2073,0.2075,0.2076,0.2063,0.2064,0.2064,0,0,0,0,0,0,0.1696,0.174,0.1749,0.1781,0.1808,0.1847,0.1862,0.1873,0.1901,0.1902,0.1929,0.1938,0.1971,0.199,0.1979,0.2033,0.2032,0.2036,0.2019,0.202,0.2021,0.2016,0.199,0,0,0,0,0,0.1695,0.1721,0.1758,0.1783,0.1797,0.1827,0.1844,0.1859,0.1888,0.19,0.1926,0.1955,0.1985,0.2003,0.2032,0.2066,0.2076,0.2079,0.208,0.208,0.2083,0.2104,0.2106,0.2081,0.2081,0.2081,0,0,0.1694,0.1722,0.1736,0.178,0.1803,0.183,0.1836,0.1864,0.1884,0.1904,0.1939,0.1959,0.1994,0.2028,0.2045,0.2045,0.2092,0.2082,0.2082,0.2084,0.2105,0.2108,0.211,0.2082,0.2081,0.2081,0,0,0.1706,0.1729,0.1753,0.1776,0.1811,0.1831,0.1837,0.1875,0.1889,0.1924,0.194,0.1966,0.2015,0.2039,0.2058,0.2081,0.2092,0.209,0.2093,0.2113,0.2115,0.2117,0.2127,0.213,0.2092,0.2092,0.2092,0,0.1701,0.1741,0.1764,0.1791,0.1811,0.183,0.1856,0.1877,0.192,0.1933,0.1933,0.1997,0.2021,0.2063,0.2068,0.2082,0.2091,0.2085,0.2113,0.2115,0.2117,0.2127,0.213,0.2092,0.2092,0.2092,0.2092,0,0.1733,0.1761,0.1776,0.1817,0.1838,0.1864,0.1893,0.1912,0.1925,0.1946,0.1982,0.2012,0.2048,0.2059,0.2073,0.2103,0.2103,0.2107,0.2107,0.2119,0.2128,0.2132,0.2091,0.2091,0.2091,0.2091,0,0,0.1733,0.1788,0.1793,0.1813,0.1853,0.1876,0.1903,0.1939,0.1955,0.1984,0.2009,0.2051,0.2056,0.2078,0.2094,0.2112,0.213,0.2115,0.2116,0.2118,0.2168,0.2164,0.2168,0.2138,0.2139,0.2139,0.2165,0,0.1751,0.1801,0.1824,0.1864,0.1891,0.1911,0.1935,0.1963,0.1984,0.2011,0.2033,0.2063,0.2067,0.2081,0.2099,0.2124,0.2141,0.2122,0.2163,0.2164,0.2154,0.2173,0.2169,0.2192,0.2169,0.217,0.217,0,0.1778,0.1808,0.1851,0.189,0.1902,0.1924,0.1959,0.1983,0.2017,0.2031,0.2055,0.2071,0.2103,0.21,0.2145,0.2132,0.215,0.2165,0.2166,0.2172,0.2168,0.218,0.22,0.2204,0.2176,0.2175,0.2175,0,0.1776,0.1826,0.1859,0.1875,0.1921,0.1936,0.1956,0.1989,0.2009,0.204,0.2054,0.2088,0.2107,0.2134,0.216,0.2155,0.2202,0.2201,0.2216,0.2215,0.2225,0.2224,0.225,0.2235,0.2235,0.2235,0.2235,0,0.1794,0.182,0.1859,0.1879,0.1909,0.1936,0.1965,0.1987,0.2016,0.2042,0.2061,0.2085,0.2117,0.2145,0.2165,0.22,0.2208,0.2221,0.2227,0.222,0.2219,0.2233,0.2232,0.2236,0.2236,0.2236,0.2235,0,0.1796,0.1823,0.186,0.1902,0.1913,0.1933,0.1969,0.199,0.2012,0.2044,0.2054,0.2088,0.2123,0.2151,0.2196,0.221,0.2247,0.2252,0.2235,0.2238,0.2252,0.225,0.2288,0.2295,0.2274,0.2274,0.2274,0,0.1806,0.1826,0.187,0.1889,0.1909,0.1938,0.1959,0.1987,0.2008,0.2049,0.2065,0.2101,0.2132,0.2186,0.2216,0.2251,0.2258,0.2269,0.2264,0.2257,0.226,0.2259,0.2262,0.227,0.227,0.227,0.227,0,0.1821,0.1834,0.1864,0.1899,0.1923,0.1952,0.1981,0.1996,0.2029,0.2052,0.2088,0.2111,0.2158,0.2194,0.2233,0.2255,0.2268,0.2271,0.2277,0.2271,0.2261,0.2268,0.2238,0.227,0.227,0.227,0.227,0.227,0.1828,0.1848,0.1883,0.1916,0.1941,0.1968,0.1991,0.2016,0.2046,0.2086,0.2101,0.2138,0.2173,0.2226,0.2248,0.2278,0.228,0.2287,0.2289,0.2291,0.2291,0.2255,0.2285,0.2285,0.2285,0.2285,0.2285,0,0.1846,0.1869,0.1899,0.194,0.1967,0.1977,0.2011,0.2032,0.2065,0.2096,0.2125,0.2167,0.2203,0.2236,0.2274,0.2291,0.2299,0.2301,0.23,0.2305,0.2287,0.2279,0.2294,0.2294,0.2294,0.2294,0.2294,0.2294,0.1858,0.1892,0.191,0.1958,0.1982,0.2018,0.2037,0.2063,0.2088,0.2134,0.2164,0.2185,0.2218,0.2258,0.2292,0.2301,0.2314,0.2314,0.2325,0.2307,0.2306,0.2305,0.2298,0.2317,0.2317,0.2341,0.2342,0.2342]},{"header":{"parameterUnit":"m.s-1","parameterCategory":1,"la1":30.2991,"la2":30.254,"lo1":-89.0895,"lo2":-89.0444,"dy":0.0017,"dx":0.0017,"nx":28,"ny":28,"refTime":"2025-02-07T09:00:00:Z","depth":0,"parameterNumber":3,"parameterNumberName":"V-component_of_WINDS"},"data":[0,0,0,0,0,0,0,0,0,0,0,0,0,0,0,0,0,0,0,0,0,0,0,0,0,0,0,0,0,0,0,0,0,0,0,0,0,0,0,0,0,0,0,0,0,0,0,0,0,0,0,0,0,0,0,0,0,0,3.9982,3.9983,0,4.0031,4.0031,4.0032,4.0029,4.0028,4.0028,4.0027,4.0072,4.0074,4.0076,0,0,0,0,0,0,0,0,0,0,0,0,0,3.9883,3.9885,3.9982,3.9983,3.9983,4.0031,4.0031,4.0032,4.0029,4.0028,4.0027,4.0027,4.0072,4.0074,4.0076,0,0,0,0,0,0,0,0,0,0,0,0,0,3.9928,3.9885,3.9982,3.9988,3.9989,4.0031,4.0031,4.0032,4.0029,4.0028,4.0027,4.0026,4.0071,4.0074,4.0076,4.0115,0,0,4.0085,4.0086,0,0,0,0,0,0,0,0,3.9926,3.9932,3.9986,3.9987,3.9988,4.0023,4.0013,4.006,4.0029,4.0014,4.0027,4.0026,4.0056,4.006,4.0072,4.0117,4.0119,4.0085,4.0087,4.0088,4.0089,0,0,0,0,0,0,0,3.9922,3.993,4.0001,3.9987,3.9988,3.9987,3.9992,4.0022,4.004,4.0015,4.0015,4.0021,4.0057,4.0069,4.0073,4.0119,4.0085,4.0087,4.0089,4.009,4.0201,4.0202,0,0,0,0,0,0,3.9919,3.9927,4.0,4.0003,3.9954,3.9989,3.9995,4.0013,4.004,4.0043,4.0022,4.0021,4.0065,4.0069,4.0074,4.0123,4.0088,4.0091,4.0092,4.0199,4.0201,4.0202,0,0,0,0,0,0,3.9917,3.9925,3.9998,3.9965,3.9974,3.9992,4.0012,4.0014,4.0027,4.0045,4.0048,4.0031,4.0064,4.007,4.0105,4.0124,4.0092,4.0094,4.0198,4.02,4.0202,4.0219,0,0,0,0,0,0,3.9914,3.9924,3.994,3.9965,3.9976,4.0029,4.0013,4.0016,4.0032,4.0031,4.0055,4.0057,4.0064,4.0101,4.0108,4.0127,4.0097,4.0196,4.0199,4.0201,4.0217,4.0221,4.0225,0,0,0,0,0,3.991,3.9941,3.9941,3.9949,3.9996,4.003,4.0036,4.0044,4.0033,4.0049,4.0061,4.0057,4.0121,4.0105,4.0113,4.0133,4.0195,4.0198,4.0201,4.0215,4.022,4.0225,0,0,0,0,0,0,3.9915,3.9944,3.9944,3.9985,4.0005,4.003,4.0049,4.0049,4.0072,4.007,4.0077,4.0082,4.0118,4.0129,4.011,4.0173,4.0156,4.0161,4.0165,4.017,4.0174,4.0171,4.0099,0,0,0,0,0,3.9921,3.9948,3.9972,4.0005,4.0016,4.0031,4.0046,4.0051,4.0072,4.008,4.0094,4.0114,4.0139,4.0154,4.0178,4.0218,4.0224,4.0236,4.024,4.0243,4.0247,4.0271,4.0278,4.0211,4.0211,4.0211,0,0,3.9933,3.9953,3.9969,4.0007,4.0023,4.005,4.0038,4.0066,4.0087,4.0083,4.0119,4.013,4.0152,4.0191,4.0208,4.0201,4.0267,4.0247,4.0249,4.0252,4.0275,4.0281,4.0287,4.0213,4.0213,4.0213,0,0,3.997,3.9987,4.0018,4.0036,4.0062,4.0072,4.0079,4.0104,4.0113,4.0149,4.0147,4.0171,4.0212,4.0229,4.0243,4.0289,4.0286,4.0296,4.0317,4.0341,4.0346,4.0351,4.0369,4.0375,4.0299,4.0299,4.0299,0,3.9981,4.0024,4.0033,4.0064,4.0081,4.0081,4.0113,4.0128,4.016,4.0171,4.0163,4.0217,4.0232,4.0275,4.0287,4.0297,4.0307,4.0293,4.0345,4.035,4.0354,4.0371,4.0378,4.0301,4.0301,4.03,4.03,0,4.0038,4.0067,4.0089,4.0123,4.0142,4.0172,4.0186,4.0204,4.0207,4.0218,4.0255,4.0273,4.0302,4.0312,4.0314,4.0356,4.0351,4.0343,4.0327,4.0361,4.0378,4.0384,4.0302,4.0302,4.0302,4.0301,0,0,4.0079,4.0119,4.0127,4.0143,4.0173,4.0195,4.0226,4.0256,4.0272,4.0294,4.032,4.0357,4.0351,4.0367,4.037,4.0391,4.0428,4.0381,4.0382,4.0391,4.0478,4.0485,4.0492,4.0426,4.0428,4.0429,4.0477,0,4.012,4.0177,4.0187,4.0236,4.0264,4.0266,4.0293,4.0313,4.0325,4.0349,4.0361,4.0388,4.0377,4.0387,4.0407,4.0419,4.0446,4.0416,4.0451,4.0452,4.0448,4.0501,4.0508,4.0552,4.0483,4.0484,4.0485,0,4.0176,4.0203,4.0256,4.0284,4.0296,4.032,4.035,4.0373,4.0397,4.0403,4.0422,4.0425,4.0456,4.0438,4.0482,4.0462,4.0476,4.0485,4.0487,4.0492,4.0472,4.0509,4.0567,4.0574,4.0495,4.0494,4.0493,0,4.0203,4.0252,4.0291,4.0304,4.0337,4.0355,4.0369,4.0392,4.041,4.0435,4.0447,4.0474,4.0489,4.051,4.0519,4.0505,4.0564,4.0546,4.057,4.057,4.0584,4.0583,4.0647,4.059,4.059,4.059,4.059,0,4.025,4.0282,4.0304,4.0328,4.0365,4.0375,4.0411,4.0425,4.0445,4.0472,4.0473,4.0497,4.0508,4.0533,4.054,4.0577,4.0583,4.059,4.0592,4.0591,4.059,4.0602,4.0599,4.0592,4.0591,4.0591,4.0591,0,4.0287,4.0302,4.0345,4.0374,4.0382,4.0408,4.0432,4.0455,4.0467,4.05,4.0508,4.0526,4.0557,4.0568,4.0604,4.0609,4.0652,4.0651,4.0645,4.0646,4.0671,4.0669,4.0746,4.0757,4.0691,4.0692,4.0692,0,4.0316,4.0342,4.0375,4.0394,4.041,4.0439,4.0459,4.047,4.049,4.052,4.0539,4.057,4.0596,4.0645,4.066,4.0688,4.0688,4.0713,4.0693,4.0692,4.0691,4.069,4.0694,4.0717,4.0718,4.0719,4.0719,0,4.0368,4.0375,4.0404,4.0436,4.046,4.0485,4.0509,4.0524,4.0539,4.0561,4.0594,4.0614,4.0653,4.0684,4.0713,4.0726,4.0726,4.0726,4.0733,4.0733,4.073,4.0734,4.0658,4.0724,4.0723,4.0723,4.0723,4.0723,4.0403,4.0427,4.0455,4.0488,4.0508,4.0531,4.0555,4.0571,4.0599,4.0633,4.0637,4.0673,4.0697,4.0737,4.0752,4.0779,4.0772,4.0782,4.0785,4.0788,4.0791,4.0725,4.0784,4.0784,4.0784,4.0784,4.0783,0,4.0457,4.0475,4.0505,4.0541,4.0567,4.0565,4.0593,4.0614,4.0646,4.0669,4.0695,4.0733,4.0764,4.0782,4.0813,4.0831,4.0832,4.0839,4.0839,4.0842,4.0795,4.0786,4.0839,4.0839,4.0839,4.0839,4.0839,4.0839,4.0488,4.0529,4.054,4.0591,4.0609,4.0646,4.0662,4.0683,4.0702,4.0746,4.0772,4.0785,4.0806,4.0839,4.0867,4.0871,4.0883,4.0892,4.0896,4.0851,4.0845,4.084,4.0832,4.0894,4.0894,4.0942,4.0942,4.0942]}]]